Location: Nairn
(57.5833°N, 3.8667°W)
Time: 15:24:01
(UTC+00:00)

Vanguard 1 Rocket - Visible Passes

Search period start: 26 November 2020 00:00
Search period end: 06 December 2020 00:00
Orbit: 656 x 4221 km, 34.3° (Epoch: 25 November)

Date Brightness Start Highest point End Pass type
(mag) Time Alt. Az. Time Alt. Az. Time Alt. Az.
26 Nov 11.0 02:01:33 25° SSE 02:01:33 25° SSE 02:13:35 10° ESE visible
26 Nov 10.6 04:18:49 23° SW 04:27:15 30° S 04:38:27 10° SE visible
26 Nov 10.6 06:40:39 10° WSW 06:52:10 21° SSW 07:00:00 10° SSE visible
27 Nov 11.3 00:54:21 19° SE 00:54:21 19° SE 01:01:09 10° ESE visible
27 Nov 10.8 03:11:38 29° S 03:15:05 31° S 03:27:54 10° ESE visible
27 Nov 10.6 05:28:55 15° WSW 05:41:03 28° SSW 05:50:57 10° SSE visible
28 Nov 10.9 02:04:23 29° SSE 02:04:23 29° SSE 02:16:40 10° ESE visible
28 Nov 10.6 04:21:40 25° SW 04:29:19 32° S 04:41:09 10° SE visible
28 Nov 10.7 06:42:40 10° WSW 06:54:08 20° SW 07:02:08 10° S visible
29 Nov 11.2 00:57:07 21° SE 00:57:07 21° SE 01:04:34 10° ESE visible
29 Nov 10.7 03:14:23 32° S 03:17:05 33° S 03:30:41 10° ESE visible
29 Nov 10.7 05:31:40 16° WSW 05:43:03 27° SSW 05:53:22 10° SSE visible
29 Nov 11.5 23:49:49 12° ESE 23:49:49 12° ESE 23:51:09 10° ESE visible
30 Nov 10.9 02:07:06 31° SSE 02:07:06 31° SSE 02:19:32 10° ESE visible
30 Nov 10.7 04:24:22 27° SW 04:31:18 32° SSW 04:43:41 10° SE visible
30 Nov 10.8 06:44:52 10° WSW 06:55:58 19° SW 07:03:58 10° S visible
01 Dec 11.2 00:59:47 23° SE 00:59:47 23° SE 01:07:37 10° ESE visible
01 Dec 10.7 03:17:03 34° S 03:19:00 35° S 03:33:18 10° SE visible
01 Dec 10.7 05:34:20 17° WSW 05:44:55 26° SSW 05:55:35 10° SSE visible
01 Dec 11.5 23:52:28 13° ESE 23:52:28 13° ESE 23:54:37 10° ESE visible
02 Dec 10.8 02:09:44 33° SSE 02:09:44 33° SSE 02:22:14 10° ESE visible
02 Dec 10.7 04:27:00 28° SW 04:33:12 32° SSW 04:46:05 10° SE visible
02 Dec 10.9 06:47:21 10° WSW 06:57:39 17° SW 07:05:25 10° SSW visible
03 Dec 11.1 01:02:24 25° SE 01:02:24 25° SE 01:10:25 10° ESE visible
03 Dec 10.7 03:19:40 35° SSW 03:20:51 35° S 03:35:48 10° SE visible
03 Dec 10.8 05:36:56 17° WSW 05:46:40 25° SW 05:57:34 10° SSE visible
03 Dec 11.5 23:55:04 14° ESE 23:55:04 14° ESE 23:57:39 10° ESE visible
04 Dec 10.8 02:12:20 34° SSE 02:12:20 34° SSE 02:24:47 10° ESE visible
04 Dec 10.7 04:29:36 28° SW 04:34:59 31° SSW 04:48:18 10° SSE visible
04 Dec 11.1 06:50:16 10° WSW 06:59:11 15° SW 07:06:18 10° SSW visible
05 Dec 11.1 01:05:00 26° SE 01:05:00 26° SE 01:13:02 10° ESE visible
05 Dec 10.7 03:22:16 36° SSW 03:22:37 36° SSW 03:38:08 10° SE visible
05 Dec 10.9 05:39:33 17° WSW 05:48:17 23° SW 05:59:15 10° S visible
